Location: Augustów
(53.8466°N, 22.9876°E)
Time: 04:46:09
(UTC+01:00)

ISS - Visible Passes

Search period start: 24 November 2017 00:00
Search period end: 04 December 2017 00:00
Orbit: 402 x 407 km, 51.6° (Epoch: 24 November)

Date Brightness Start Highest point End Pass type
(mag) Time Alt. Az. Time Alt. Az. Time Alt. Az.
29 Nov -1.5 17:26:33 10° S 17:27:45 14° SSE 17:27:45 14° SSE visible
30 Nov -1.3 16:36:13 10° SE 16:36:28 10° SE 16:36:42 10° SE visible
30 Nov -1.3 18:09:12 10° SW 18:10:15 17° SSW 18:10:15 17° SSW visible
01 Dec -2.3 17:17:13 10° SSW 17:19:57 24° SSE 17:20:01 24° SSE visible
02 Dec -1.7 16:25:30 10° S 16:27:45 17° SSE 16:29:44 11° ESE visible
02 Dec -2.0 18:00:32 10° WSW 18:02:23 28° SW 18:02:23 28° SW visible
03 Dec -2.9 17:08:20 10° SW 17:11:23 36° SSE 17:12:04 32° SE visible
03 Dec -0.4 18:44:22 10° W 18:44:42 12° WSW 18:44:42 12° WSW visible
